Location: Le Sartre
(44.8050°N, 2.2123°E)
Time: 15:05:23
(UTC+00:00)

Cosmos 158 Rocket - Pass Details

Date: 15 May 2026
Orbit: 694 x 785 km, 74.0° (Epoch: 10 June)

Event Time Altitude Azimuth Distance (km) Brightness Sun altitude
Exits shadow 23:39:42 48° 97° (E) 1,017 4.5 -26.1°
Drops below altitude 10° 23:44:36 10° 31° (NNE) 2,341 7.2 -26.1°
Sets 23:47:03 0° 27° (NNE) 3,265 8.2 -26.1°
